Wind_Speed
95 97 98 99 100 100 99 99 100 100 101 102 102 103 104 105 106 106 105 103 101 103 108 113 115 116 117 117 116 116 115 115 116 117 115 113 112 112 111 110 108 103 99 97 94 91 91 90 89 88 87 87
94 96 97 98 98 98 98 97 97 98 98 99 100 101 102 104 105 106 105 105 103 100 102 109 113 115 117 117 117 117 116 116 117 117 117 116 115 115 115 113 111 109 106 103 99 96 94 93 92 91 91 89
92 94 95 96 96 96 95 95 94 94 95 96 98 99 100 102 105 107 106 105 106 103 100 104 109 113 115 117 117 117 117 117 117 118 118 117 117 118 118 116 114 113 112 110 106 102 99 96 93 92 93 93
89 91 92 93 93 93 92 91 90 90 91 93 94 95 97 99 102 105 107 107 107 107 105 103 106 110 113 115 116 118 119 117 117 118 119 118 118 119 119 118 117 117 116 115 112 108 105 100 96 94 95 95
87 89 90 90 91 90 89 87 87 86 87 88 90 91 93 95 98 101 105 107 108 110 110 108 107 108 111 113 114 117 119 119 118 118 120 120 119 120 120 120 120 119 120 119 117 114 110 106 100 97 97 96
85 87 88 89 89 88 87 85 84 83 84 85 87 89 91 93 96 99 102 105 107 109 112 113 111 109 110 112 113 114 118 120 119 119 120 120 121 121 122 122 122 122 122 121 119 117 115 112 107 103 101 99
85 86 87 87 87 87 86 84 83 82 82 83 85 87 89 91 93 97 100 103 105 107 109 114 115 112 111 113 113 114 116 119 121 121 121 121 122 123 123 124 124 124 123 122 121 119 118 117 113 109 106 104
84 85 86 86 86 85 85 83 82 80 80 81 82 84 86 88 90 93 97 101 104 106 107 111 115 115 113 115 115 115 115 117 120 122 122 122 123 124 125 126 126 126 124 123 122 120 119 119 118 114 111 109
83 84 84 84 84 84 83 83 82 80 80 80 80 82 84 86 88 90 93 98 102 105 107 109 112 115 115 116 117 117 117 118 120 122 124 124 124 125 127 128 129 128 126 125 123 122 121 120 120 118 116 114
83 84 83 84 84 83 83 83 82 81 80 80 79 80 81 83 85 87 89 94 99 102 105 107 110 113 115 116 117 119 119 119 121 122 124 126 125 126 128 129 130 129 128 126 124 123 122 121 120 120 119 118
83 83 83 84 85 84 84 84 83 81 79 78 77 77 77 78 81 84 86 89 95 99 102 105 107 110 113 115 117 120 120 120 122 123 124 126 127 127 129 130 131 131 129 128 127 125 124 123 122 121 121 121
82 83 84 85 86 86 86 85 84 82 79 76 74 74 74 75 76 80 83 86 91 96 100 103 105 108 111 114 117 120 122 121 122 124 125 126 127 129 129 130 131 132 131 130 129 128 127 125 124 123 123 123
81 83 84 85 86 87 87 87 86 84 81 78 74 72 71 72 73 75 79 83 88 93 99 102 104 107 110 113 117 120 123 123 123 125 127 127 127 129 130 131 132 133 132 132 131 131 130 128 126 125 125 124
80 82 83 84 86 87 87 87 87 87 85 82 78 73 69 69 70 71 74 79 84 90 97 101 103 105 109 112 117 120 123 125 125 126 128 129 128 129 131 132 134 134 134 133 132 132 133 132 130 128 127 126
79 80 81 82 84 85 86 87 87 87 86 84 81 77 71 66 66 68 70 74 79 86 93 99 103 105 108 112 116 120 123 126 127 127 129 130 131 131 132 133 135 135 135 134 133 133 134 135 134 132 130 129
78 79 80 81 82 84 85 85 85 86 86 85 82 78 73 66 62 64 68 70 74 80 87 94 100 105 108 111 116 120 123 126 129 129 129 131 133 134 134 135 136 136 135 134 134 135 135 136 137 136 134 133
78 79 80 80 81 82 83 83 83 84 84 84 82 78 74 68 61 60 64 68 70 74 81 88 95 102 106 110 114 119 123 126 129 131 131 132 133 136 136 137 136 136 135 133 133 135 137 138 139 139 138 137
78 78 79 80 80 81 81 82 81 81 81 81 80 77 73 69 63 58 60 65 67 69 74 82 89 96 102 106 111 116 122 126 129 132 133 133 134 136 138 138 137 136 134 133 134 135 137 139 141 141 141 140
78 78 79 79 80 80 80 80 80 79 79 79 78 75 71 68 64 59 57 60 65 66 68 74 82 90 96 102 106 111 117 123 127 131 134 135 135 136 138 139 138 136 135 133 134 136 138 139 142 143 144 143
78 78 79 79 79 79 79 78 78 77 76 76 75 73 69 66 62 60 57 57 61 65 65 68 75 83 90 96 101 105 111 117 123 129 133 135 135 136 137 139 139 137 135 134 135 136 137 139 142 145 146 146
79 79 78 78 78 78 78 77 76 75 74 73 73 71 68 64 61 59 57 55 57 62 63 64 68 76 83 90 96 101 105 111 117 124 130 133 135 136 137 138 138 137 136 135 136 136 137 139 141 144 147 148
79 79 78 78 78 78 77 77 75 73 72 71 70 70 67 63 59 57 56 54 53 57 60 62 64 70 77 84 90 96 100 105 111 117 124 130 133 134 136 137 137 137 137 136 137 137 137 139 142 144 147 149
79 79 79 78 77 77 77 77 75 73 71 68 67 68 66 61 57 54 54 54 52 52 55 59 61 65 71 79 84 90 96 100 105 111 118 125 129 132 134 136 136 136 137 137 138 138 138 139 142 144 147 148
79 79 79 78 77 78 77 77 76 74 71 68 66 66 65 61 56 53 51 51 52 51 51 54 58 62 67 73 79 85 91 96 101 105 112 119 125 129 132 135 136 136 136 138 139 140 140 140 142 144 147 148
79 79 78 78 78 78 78 77 77 75 72 69 65 64 64 61 55 51 49 48 50 51 50 50 54 59 63 68 74 80 85 91 96 101 106 112 119 125 130 133 136 136 137 138 140 141 142 142 142 144 147 148
80 79 79 79 78 78 78 78 77 76 74 70 66 64 63 61 56 51 48 46 46 49 50 49 50 54 60 64 69 76 81 86 91 96 100 105 112 120 126 131 134 136 138 139 140 142 144 145 144 145 146 147
81 81 80 79 79 78 78 78 77 77 75 72 68 64 62 61 57 52 47 45 44 45 48 49 49 50 55 61 65 70 76 81 86 91 96 100 105 112 120 126 131 134 137 140 141 142 145 146 146 146 146 146
84 83 82 81 80 79 78 78 78 77 75 73 69 65 62 61 58 53 48 45 43 43 44 47 49 49 51 56 62 66 71 77 82 87 92 96 101 106 113 120 126 131 136 139 141 142 145 147 148 148 147 146
87 87 85 83 82 80 79 78 77 77 76 73 70 66 62 60 58 55 50 45 43 42 42 44 47 48 49 52 57 62 67 72 77 82 87 92 97 102 107 114 121 127 132 138 142 144 145 147 149 149 148 146
90 90 88 86 84 82 81 79 78 77 76 73 69 66 62 60 58 55 52 47 43 41 41 41 43 46 48 50 54 58 63 67 72 78 83 88 93 98 103 108 114 121 127 134 141 145 146 146 149 151 150 149
93 93 91 89 87 85 82 81 79 77 76 74 70 66 62 59 57 55 52 49 45 41 40 40 41 43 46 49 51 55 59 64 68 73 79 84 90 95 99 104 109 116 122 128 136 143 147 147 148 151 153 152
Wind_Direction
284 283 281 281 280 279 278 277 276 275 275 274 273 273 272 271 270 269 267 263 258 256 258 258 257 256 255 253 252 251 250 249 249 248 248 247 247 247 247 247 248 247 246 244 242 240 238 236 235 235 235 235
284 283 282 281 280 279 278 277 276 275 275 274 273 272 271 271 270 269 268 266 262 257 255 256 256 255 255 253 252 250 249 247 247 247 247 246 246 246 245 245 246 247 247 246 244 242 240 238 236 236 235 235
285 284 283 281 280 279 278 277 276 274 273 272 271 270 269 268 268 268 267 266 265 261 256 255 255 254 254 253 252 250 248 246 246 245 245 245 244 244 244 244 244 245 246 246 245 243 241 239 236 236 236 236
287 286 284 283 282 280 278 277 275 273 272 270 269 268 267 266 265 264 265 264 263 262 260 256 254 254 253 252 251 250 248 246 244 244 244 243 243 243 243 243 243 243 244 244 244 244 242 240 237 237 237 236
291 289 288 286 284 282 280 278 276 274 273 272 270 269 268 266 265 263 262 261 260 260 260 258 255 253 253 251 250 249 248 246 243 242 242 242 241 241 242 242 242 242 242 243 243 243 243 242 239 238 238 237
295 293 291 289 287 285 283 281 279 277 275 274 273 271 269 267 266 264 262 260 258 257 256 257 256 254 252 251 250 248 247 247 244 242 240 240 239 239 239 240 241 241 241 241 242 242 242 242 241 239 238 238
298 296 294 292 291 289 286 284 282 279 277 275 274 272 270 268 265 263 262 260 258 255 253 253 254 253 251 250 249 248 246 246 245 243 240 239 238 237 237 238 239 240 240 240 240 240 241 242 241 240 239 238
301 299 297 295 294 292 290 287 285 282 280 278 276 274 272 269 266 263 261 259 257 255 252 250 251 251 250 249 248 247 246 244 244 243 241 238 237 236 236 236 237 238 239 239 239 239 239 240 240 240 239 239
303 302 300 299 297 295 293 291 289 286 284 282 279 276 274 271 268 264 261 259 257 255 252 250 248 248 248 246 246 245 244 243 243 242 241 239 236 235 235 235 235 236 237 238 238 238 238 239 239 239 239 239
306 305 304 302 301 299 297 295 293 290 288 285 282 279 275 272 269 265 261 259 256 254 252 249 247 246 246 244 243 243 243 242 242 241 241 240 237 235 234 234 234 235 235 236 237 237 238 238 238 239 239 239
309 308 307 306 304 302 300 298 296 293 290 287 284 282 279 274 270 266 262 258 255 253 251 249 247 245 244 243 241 241 241 240 240 240 239 239 238 235 234 234 234 234 233 233 234 235 236 237 237 238 238 238
312 311 310 309 307 305 304 302 299 296 293 290 287 286 283 278 272 267 262 257 254 252 250 248 246 244 242 241 240 239 239 239 238 238 238 238 238 236 235 234 233 233 233 232 232 233 234 235 236 237 237 237
314 313 312 311 309 308 307 306 304 302 299 295 292 290 287 283 276 268 262 257 252 250 249 247 245 243 242 240 239 238 238 238 237 236 237 237 237 236 235 234 233 233 232 231 230 230 232 233 234 235 236 237
315 314 313 312 311 311 310 309 308 306 303 301 298 295 291 287 280 271 263 257 252 248 247 247 245 242 241 240 238 237 237 236 236 235 235 236 236 236 235 234 233 232 232 231 230 229 229 231 232 234 235 236
315 313 313 313 312 312 311 310 309 308 306 304 302 299 295 290 283 275 266 258 253 249 246 246 245 243 240 239 238 237 236 236 235 235 234 234 234 235 235 234 233 233 231 230 230 229 228 228 230 231 233 234
315 314 313 313 313 312 312 312 311 309 308 306 304 302 299 294 287 279 271 263 255 250 247 245 244 243 241 238 237 237 236 235 235 235 233 232 232 233 234 234 234 233 232 230 229 229 228 227 228 230 231 232
315 315 314 314 314 313 313 313 312 311 309 308 306 305 303 298 291 282 275 268 260 253 249 246 244 243 241 239 237 236 236 235 234 234 234 232 231 231 232 234 234 233 232 231 229 228 227 227 227 228 229 231
316 316 315 315 314 314 314 314 314 313 311 309 308 307 305 302 296 287 279 273 266 258 252 248 245 243 241 240 237 235 235 235 234 234 234 233 231 230 231 232 233 233 232 231 229 229 228 227 226 227 228 229
318 317 316 316 315 315 315 316 315 315 313 311 309 308 307 304 299 292 284 277 270 263 255 250 246 243 241 240 238 235 234 234 234 233 233 233 232 231 230 231 232 232 232 231 230 229 228 227 226 226 227 228
319 318 317 316 316 316 316 317 317 317 316 313 311 310 308 305 301 295 288 280 273 268 260 252 247 244 241 240 239 236 234 234 234 233 233 233 233 232 230 230 230 231 231 231 230 229 229 228 227 226 226 227
320 319 318 317 317 317 317 317 318 319 318 316 313 311 310 307 303 297 291 283 275 269 263 255 249 245 242 240 239 237 235 234 233 234 233 233 233 232 232 230 230 230 230 231 231 230 229 228 228 228 227 227
321 320 319 318 318 318 318 318 319 320 320 318 316 313 311 309 304 299 294 286 277 270 265 259 251 246 243 240 238 237 236 234 233 233 233 233 233 233 232 232 230 230 229 230 231 230 229 229 229 229 228 227
321 320 320 320 319 319 319 319 319 321 321 320 318 314 312 310 306 301 296 290 282 273 266 260 254 248 243 241 239 237 237 235 233 232 233 233 233 233 233 232 231 230 229 229 230 231 230 229 229 229 229 229
321 321 321 321 320 320 320 320 321 322 323 322 320 316 314 311 308 303 298 293 287 279 269 261 256 250 245 241 239 237 237 236 235 232 232 232 233 233 233 233 232 231 230 229 229 230 230 230 229 229 229 229
322 322 322 322 322 322 322 323 323 323 324 324 322 318 315 313 310 306 301 295 290 284 275 264 257 252 247 243 240 238 237 236 236 234 232 231 231 232 232 232 232 231 230 229 229 229 230 230 230 229 229 230
323 323 323 323 324 324 324 324 324 324 325 325 323 320 317 314 312 309 303 297 292 286 279 270 259 253 249 245 241 239 237 236 236 236 235 232 231 231 231 232 232 231 230 230 229 229 229 230 230 229 230 230
325 325 325 325 325 325 325 325 325 325 325 326 325 322 319 316 313 311 306 300 294 287 280 273 264 255 250 247 243 239 238 237 236 236 236 234 232 231 231 231 231 231 230 230 229 229 229 230 230 229 229 229
327 326 326 325 325 325 325 326 326 326 326 326 326 324 321 317 314 312 309 303 297 289 281 274 268 260 252 248 245 241 238 237 236 235 235 235 233 231 230 230 231 231 230 230 230 229 229 230 230 230 229 229
329 328 327 326 326 326 326 326 326 326 326 326 326 325 323 319 316 314 311 306 300 293 284 275 269 263 256 249 246 244 240 238 237 236 235 235 234 233 231 230 230 230 230 229 230 229 229 230 230 231 230 229
330 329 328 327 326 326 326 326 326 326 326 326 326 326 324 321 317 315 312 309 303 296 288 278 269 264 260 254 248 245 243 240 237 236 235 234 234 234 232 231 229 229 229 229 229 229 229 229 230 231 231 231
331 330 329 327 326 326 326 326 326 326 326 326 326 326 324 322 318 315 313 310 306 299 292 283 273 266 261 257 252 247 244 242 239 237 236 235 234 234 233 232 230 229 229 229 228 229 229 229 229 230 231 232
Height
10589 10585 10582 10580 10578 10578 10578 10578 10577 10575 10573 10571 10569 10568 10567 10564 10563 10565 10569 10574 10581 10586 10584 10582 10584 10588 10594 10604 10611 10617 10626 10633 10638 10645 10652 10660 10665 10669 10674 10678 10683 10689 10694 10698 10703 10707 10711 10715 10718 10720 10723 10726
10577 10573 10570 10567 10565 10564 10564 10564 10564 10562 10560 10558 10555 10554 10552 10550 10548 10548 10552 10555 10559 10568 10571 10567 10567 10570 10574 10582 10591 10599 10607 10615 10620 10627 10635 10643 10649 10654 10658 10665 10671 10676 10681 10686 10691 10695 10699 10703 10708 10711 10714 10717
10566 10561 10557 10554 10552 10551 10551 10550 10550 10549 10547 10544 10542 10540 10538 10536 10533 10531 10533 10538 10539 10545 10553 10554 10552 10553 10556 10562 10570 10579 10588 10596 10602 10609 10618 10626 10632 10638 10643 10650 10658 10663 10667 10672 10678 10682 10686 10691 10699 10704 10704 10707
10555 10549 10544 10541 10539 10537 10537 10536 10536 10535 10533 10530 10528 10526 10525 10522 10520 10517 10516 10520 10524 10525 10531 10538 10539 10538 10540 10544 10551 10558 10567 10577 10585 10591 10599 10608 10615 10621 10627 10635 10643 10650 10653 10658 10664 10669 10674 10678 10688 10695 10694 10697
10543 10536 10531 10528 10525 10523 10522 10522 10521 10521 10519 10516 10513 10511 10510 10508 10505 10503 10501 10502 10507 10509 10510 10516 10523 10525 10525 10528 10534 10540 10545 10555 10566 10573 10581 10589 10598 10604 10610 10618 10626 10633 10638 10643 10650 10656 10662 10666 10676 10684 10684 10687
10531 10525 10519 10515 10511 10508 10507 10506 10506 10505 10504 10501 10499 10496 10494 10493 10490 10487 10485 10485 10489 10493 10494 10494 10501 10509 10511 10512 10517 10523 10527 10533 10544 10554 10563 10571 10580 10587 10593 10601 10608 10616 10622 10629 10636 10643 10649 10654 10663 10671 10674 10677
10520 10513 10507 10503 10498 10494 10492 10491 10490 10490 10489 10487 10484 10481 10478 10477 10475 10472 10469 10468 10469 10474 10478 10477 10479 10488 10495 10497 10500 10506 10511 10515 10522 10533 10544 10553 10561 10568 10575 10583 10591 10599 10607 10614 10622 10629 10635 10641 10648 10658 10663 10667
10510 10503 10496 10491 10486 10481 10477 10475 10474 10473 10472 10471 10469 10466 10462 10460 10458 10456 10452 10450 10450 10454 10458 10461 10461 10467 10475 10481 10484 10489 10495 10499 10504 10511 10522 10534 10543 10549 10557 10565 10573 10581 10590 10598 10607 10614 10621 10627 10634 10643 10651 10655
10500 10492 10486 10480 10474 10469 10464 10460 10457 10456 10455 10454 10452 10450 10446 10443 10440 10439 10436 10433 10432 10434 10438 10443 10445 10448 10455 10462 10466 10471 10478 10483 10487 10493 10501 10512 10524 10532 10538 10546 10554 10564 10574 10582 10591 10599 10607 10614 10621 10629 10637 10642
10489 10482 10475 10469 10463 10457 10451 10446 10443 10440 10438 10437 10435 10433 10430 10426 10422 10420 10419 10416 10414 10415 10418 10423 10427 10431 10435 10442 10448 10452 10459 10466 10470 10476 10482 10490 10503 10513 10520 10527 10535 10545 10557 10567 10576 10584 10592 10600 10607 10615 10622 10629
10478 10471 10464 10458 10451 10445 10439 10433 10429 10425 10423 10421 10418 10415 10412 10409 10404 10401 10401 10399 10397 10397 10400 10404 10409 10414 10418 10423 10429 10433 10438 10447 10454 10459 10465 10472 10482 10493 10502 10510 10517 10527 10539 10550 10559 10569 10577 10585 10593 10600 10607 10615
10468 10460 10454 10447 10439 10432 10426 10420 10414 10410 10407 10405 10403 10399 10394 10391 10387 10384 10382 10382 10381 10380 10381 10385 10390 10395 10400 10404 10409 10415 10419 10427 10436 10442 10448 10455 10463 10473 10483 10492 10501 10509 10520 10532 10542 10552 10561 10570 10578 10585 10592 10599
10457 10450 10443 10436 10428 10420 10413 10406 10399 10394 10390 10387 10385 10383 10378 10373 10370 10367 10365 10364 10365 10364 10363 10365 10370 10376 10381 10386 10391 10396 10401 10406 10415 10424 10431 10438 10446 10455 10465 10475 10483 10492 10502 10513 10524 10535 10545 10554 10562 10570 10577 10584
10449 10441 10434 10427 10418 10410 10403 10395 10388 10380 10374 10370 10366 10364 10362 10358 10352 10350 10349 10348 10348 10348 10346 10346 10352 10358 10363 10368 10373 10379 10384 10388 10395 10405 10414 10421 10429 10437 10447 10457 10465 10474 10485 10495 10506 10518 10528 10537 10546 10554 10562 10569
10444 10435 10428 10420 10411 10403 10395 10387 10378 10370 10362 10356 10351 10347 10345 10343 10337 10333 10331 10331 10331 10332 10332 10332 10335 10340 10345 10351 10357 10362 10367 10372 10377 10385 10395 10404 10413 10420 10428 10438 10447 10456 10467 10478 10489 10499 10510 10520 10529 10538 10546 10554
10437 10428 10420 10413 10404 10395 10386 10378 10369 10360 10351 10344 10338 10333 10329 10327 10323 10318 10314 10314 10315 10316 10317 10318 10319 10322 10327 10334 10339 10344 10350 10356 10361 10367 10376 10386 10395 10404 10411 10419 10429 10439 10450 10461 10472 10482 10492 10503 10513 10522 10530 10538
10429 10420 10412 10404 10395 10386 10378 10369 10360 10350 10341 10332 10325 10320 10315 10311 10309 10305 10300 10297 10299 10300 10301 10302 10303 10305 10309 10316 10322 10327 10333 10340 10345 10351 10358 10367 10377 10387 10394 10401 10410 10421 10433 10444 10455 10465 10475 10485 10496 10505 10514 10522
10421 10412 10403 10395 10386 10378 10369 10359 10350 10341 10331 10322 10314 10308 10302 10297 10294 10291 10287 10283 10283 10285 10285 10286 10287 10289 10292 10297 10305 10311 10316 10323 10330 10335 10341 10349 10359 10369 10378 10385 10393 10404 10415 10427 10439 10449 10458 10468 10477 10487 10496 10505
10412 10403 10394 10386 10377 10369 10360 10351 10341 10331 10321 10312 10304 10297 10292 10286 10281 10278 10275 10271 10268 10269 10271 10271 10272 10274 10276 10280 10287 10295 10300 10306 10313 10320 10325 10332 10342 10351 10361 10369 10377 10387 10399 10410 10422 10433 10442 10451 10460 10469 10478 10487
10403 10394 10385 10377 10368 10359 10351 10343 10333 10323 10312 10303 10294 10287 10281 10276 10270 10266 10263 10260 10255 10254 10256 10258 10258 10259 10262 10265 10270 10278 10285 10291 10297 10304 10310 10317 10325 10334 10344 10353 10361 10371 10383 10394 10405 10416 10427 10435 10443 10451 10460 10468
10394 10385 10376 10368 10359 10350 10342 10334 10325 10315 10304 10293 10284 10277 10271 10266 10260 10255 10251 10248 10245 10242 10242 10244 10246 10246 10248 10251 10255 10261 10269 10276 10282 10288 10295 10301 10310 10319 10328 10338 10347 10356 10368 10379 10389 10399 10410 10420 10428 10435 10442 10450
10385 10376 10367 10359 10350 10341 10333 10325 10316 10308 10297 10286 10276 10267 10262 10257 10251 10246 10240 10237 10234 10231 10230 10231 10233 10234 10235 10238 10241 10246 10252 10260 10267 10273 10279 10286 10294 10304 10313 10323 10333 10342 10352 10364 10374 10383 10393 10403 10412 10419 10426 10433
10377 10368 10358 10350 10341 10332 10324 10315 10307 10299 10290 10280 10269 10260 10253 10248 10242 10237 10231 10226 10223 10222 10220 10220 10221 10223 10224 10225 10229 10233 10237 10244 10252 10259 10265 10272 10279 10289 10298 10307 10318 10328 10337 10348 10358 10367 10376 10385 10394 10402 10409 10416
10368 10360 10350 10341 10332 10322 10313 10305 10296 10288 10280 10272 10262 10253 10245 10240 10234 10228 10223 10217 10213 10211 10210 10209 10210 10211 10213 10214 10217 10221 10225 10229 10236 10244 10251 10257 10264 10273 10282 10290 10301 10313 10323 10332 10342 10350 10358 10367 10376 10383 10391 10398
10360 10351 10342 10332 10322 10312 10303 10294 10286 10277 10270 10262 10254 10245 10237 10231 10226 10220 10214 10209 10204 10201 10200 10200 10200 10200 10202 10204 10206 10209 10213 10217 10222 10229 10236 10243 10249 10256 10264 10273 10282 10294 10307 10316 10325 10334 10340 10347 10356 10364 10372 10380
10351 10342 10333 10324 10314 10304 10294 10285 10276 10268 10260 10252 10245 10237 10228 10221 10217 10211 10206 10201 10197 10193 10190 10189 10190 10191 10191 10193 10196 10199 10202 10207 10211 10216 10223 10231 10238 10243 10249 10256 10264 10275 10288 10299 10308 10317 10324 10329 10335 10344 10353 10363
10341 10333 10324 10315 10306 10296 10287 10277 10268 10260 10252 10243 10236 10229 10221 10213 10208 10203 10198 10193 10189 10186 10182 10180 10180 10181 10182 10183 10185 10188 10191 10196 10200 10205 10210 10217 10224 10230 10236 10242 10249 10258 10269 10280 10291 10301 10307 10311 10316 10326 10335 10346
10331 10322 10314 10305 10297 10288 10279 10270 10261 10252 10244 10236 10227 10220 10213 10205 10199 10194 10190 10185 10181 10178 10175 10171 10170 10171 10172 10173 10175 10177 10180 10184 10188 10193 10198 10203 10209 10216 10222 10228 10235 10243 10251 10262 10273 10283 10290 10296 10302 10309 10317 10328
10321 10312 10303 10295 10287 10279 10271 10263 10254 10245 10236 10228 10220 10212 10204 10197 10191 10185 10181 10177 10173 10170 10167 10164 10162 10161 10162 10164 10165 10166 10169 10173 10177 10181 10186 10190 10195 10201 10207 10214 10221 10227 10235 10244 10254 10263 10273 10281 10286 10293 10301 10313
10311 10302 10293 10285 10277 10269 10262 10254 10247 10238 10229 10222 10214 10205 10197 10190 10183 10178 10173 10169 10165 10162 10159 10157 10154 10152 10152 10154 10155 10157 10159 10162 10165 10169 10173 10177 10182 10187 10193 10200 10206 10212 10219 10227 10236 10245 10254 10263 10270 10279 10288 10295
10303 10293 10284 10276 10267 10260 10252 10244 10236 10229 10221 10213 10206 10198 10191 10183 10176 10170 10165 10161 10157 10154 10151 10149 10146 10145 10143 10144 10145 10147 10149 10151 10154 10157 10161 10165 10169 10173 10179 10185 10191 10197 10203 10211 10219 10227 10236 10245 10254 10264 10271 10277